When you browse on this site, cookies collect data to enhance your experience and personalize the content and advertising you see.
Visit our Privacy Policy to learn more. By continuing to use the site, you agree to this use of cookies and data.
  • In Österreich
  • Länderverzeichnis
  • Für 7 Tage
  • Wassertemperatur
  • Satellitenkarten
  • Wetterkarte
  • News
  • Widgets
  • user-avatar
    Anmelden

    Stündliche Wetter Manama

    Heute, 20 April, Samstag

    Zeit Temperatur Niederschläge Wind Luftdruck Luftfeuchtigkeit
    00:00 +28°C° 0 mm 6 m/S 756 mmHg 56%
    01:00 +28°C° 0 mm 6 m/S 756 mmHg 57%
    02:00 +28°C° 0 mm 5 m/S 755 mmHg 57%
    03:00 +28°C° 0 mm 5 m/S 755 mmHg 56%
    04:00 +28°C° 0 mm 5 m/S 755 mmHg 56%
    05:00 +28°C° 0 mm 5 m/S 755 mmHg 55%
    06:00 +28°C° 0 mm 5 m/S 756 mmHg 55%
    07:00 +29°C° 0 mm 5 m/S 756 mmHg 51%
    08:00 +30°C° 0 mm 5 m/S 756 mmHg 47%
    09:00 +32°C° 0 mm 5 m/S 756 mmHg 42%
    10:00 +33°C° 0 mm 4 m/S 756 mmHg 40%
    11:00 +33°C° 0 mm 4 m/S 756 mmHg 38%
    12:00 +34°C° 0 mm 3 m/S 756 mmHg 36%
    13:00 +34°C° 0 mm 4 m/S 755 mmHg 36%
    14:00 +34°C° 0 mm 4 m/S 755 mmHg 36%
    15:00 +33°C° 0 mm 5 m/S 755 mmHg 36%
    16:00 +32°C° 0 mm 5 m/S 755 mmHg 41%
    17:00 +30°C° 0 mm 6 m/S 755 mmHg 45%
    18:00 +29°C° 0 mm 6 m/S 755 mmHg 50%
    19:00 +28°C° 0 mm 7 m/S 755 mmHg 52%
    20:00 +28°C° 0 mm 7 m/S 755 mmHg 54%
    21:00 +27°C° 0 mm 7 m/S 756 mmHg 56%
    22:00 +27°C° 0 mm 7 m/S 756 mmHg 55%
    23:00 +27°C° 0 mm 7 m/S 755 mmHg 53%

    Morgen, 21 April, Sonntag

    Zeit Temperatur Niederschläge Wind Luftdruck Luftfeuchtigkeit
    00:00 +27°C° 0 mm 7 m/S 755 mmHg 52%
    01:00 +27°C° 0 mm 7 m/S 755 mmHg 52%
    02:00 +27°C° 0 mm 7 m/S 755 mmHg 53%
    03:00 +27°C° 0 mm 7 m/S 755 mmHg 54%
    04:00 +27°C° 0 mm 7 m/S 755 mmHg 56%
    05:00 +27°C° 0 mm 6 m/S 755 mmHg 58%
    06:00 +26°C° 0 mm 6 m/S 755 mmHg 61%
    07:00 +27°C° 0 mm 6 m/S 755 mmHg 58%
    08:00 +27°C° 0 mm 5 m/S 756 mmHg 55%
    09:00 +28°C° 0 mm 5 m/S 756 mmHg 52%
    10:00 +29°C° 0 mm 4 m/S 755 mmHg 48%
    11:00 +30°C° 0 mm 4 m/S 755 mmHg 45%
    12:00 +31°C° 0 mm 3 m/S 755 mmHg 41%
    13:00 +31°C° 0.1 mm 3 m/S 755 mmHg 39%
    14:00 +31°C° 0.1 mm 3 m/S 754 mmHg 37%
    15:00 +33°C° 0.1 mm 4 m/S 754 mmHg 35%
    16:00 +31°C° 0 mm 3 m/S 754 mmHg 36%
    17:00 +31°C° 0 mm 3 m/S 754 mmHg 37%
    18:00 +30°C° 0 mm 2 m/S 754 mmHg 37%
    19:00 +30°C° 0.2 mm 2 m/S 754 mmHg 39%
    20:00 +29°C° 0.2 mm 2 m/S 754 mmHg 41%
    21:00 +29°C° 0.2 mm 2 m/S 755 mmHg 43%
    22:00 +28°C° 0.1 mm 3 m/S 754 mmHg 46%
    23:00 +28°C° 0.1 mm 5 m/S 754 mmHg 49%

    übermorgen, 22 April, Montag

    Zeit Temperatur Niederschläge Wind Luftdruck Luftfeuchtigkeit
    00:00 +27°C° 0.1 mm 6 m/S 754 mmHg 52%
    01:00 +27°C° 0.4 mm 5 m/S 753 mmHg 55%
    02:00 +27°C° 0.4 mm 5 m/S 753 mmHg 57%
    03:00 +27°C° 0.4 mm 4 m/S 753 mmHg 60%
    04:00 +27°C° 0.2 mm 4 m/S 753 mmHg 58%
    05:00 +27°C° 0.2 mm 4 m/S 753 mmHg 57%
    06:00 +28°C° 0.2 mm 3 m/S 754 mmHg 56%
    07:00 +29°C° 0.1 mm 3 m/S 754 mmHg 52%
    08:00 +30°C° 0.1 mm 2 m/S 755 mmHg 48%
    09:00 +31°C° 0.1 mm 2 m/S 755 mmHg 44%
    10:00 +31°C° 0 mm 3 m/S 755 mmHg 44%
    11:00 +33°C° 0 mm 4 m/S 756 mmHg 43%
    12:00 +33°C° 0 mm 5 m/S 756 mmHg 42%
    13:00 +32°C° 0.2 mm 7 m/S 756 mmHg 45%
    14:00 +29°C° 0.2 mm 9 m/S 756 mmHg 48%
    15:00 +28°C° 0.2 mm 11 m/S 756 mmHg 51%
    16:00 +27°C° 0.2 mm 11 m/S 756 mmHg 53%
    17:00 +27°C° 0.2 mm 11 m/S 756 mmHg 54%
    18:00 +26°C° 0.2 mm 10 m/S 756 mmHg 55%
    19:00 +26°C° 0.1 mm 10 m/S 757 mmHg 54%
    20:00 +26°C° 0.1 mm 10 m/S 758 mmHg 53%
    21:00 +26°C° 0.1 mm 9 m/S 758 mmHg 51%
    22:00 +26°C° 0 mm 10 m/S 758 mmHg 48%
    23:00 +26°C° 0 mm 10 m/S 758 mmHg 45%

    23 April, Dienstag

    Zeit Temperatur Niederschläge Wind Luftdruck Luftfeuchtigkeit
    00:00 +26°C° 0 mm 11 m/S 758 mmHg 41%
    01:00 +26°C° 0 mm 11 m/S 758 mmHg 41%
    02:00 +26°C° 0 mm 12 m/S 758 mmHg 40%
    03:00 +26°C° 0 mm 12 m/S 758 mmHg 40%
    04:00 +26°C° 0 mm 12 m/S 758 mmHg 41%
    05:00 +24°C° 0 mm 12 m/S 759 mmHg 41%
    06:00 +24°C° 0 mm 11 m/S 760 mmHg 42%
    07:00 +26°C° 0 mm 11 m/S 760 mmHg 39%
    08:00 +26°C° 0 mm 11 m/S 761 mmHg 37%
    09:00 +27°C° 0 mm 10 m/S 762 mmHg 34%
    10:00 +27°C° 0 mm 10 m/S 761 mmHg 33%
    11:00 +27°C° 0 mm 10 m/S 761 mmHg 32%
    12:00 +28°C° 0 mm 10 m/S 761 mmHg 31%
    13:00 +27°C° 0 mm 11 m/S 761 mmHg 31%
    14:00 +27°C° 0 mm 11 m/S 761 mmHg 32%
    15:00 +27°C° 0 mm 12 m/S 760 mmHg 32%
    16:00 +26°C° 0 mm 11 m/S 760 mmHg 33%
    17:00 +26°C° 0 mm 11 m/S 761 mmHg 34%
    18:00 +24°C° 0 mm 11 m/S 761 mmHg 35%
    19:00 +24°C° 0 mm 9 m/S 761 mmHg 36%
    20:00 +24°C° 0 mm 8 m/S 762 mmHg 37%
    21:00 +24°C° 0 mm 7 m/S 762 mmHg 38%
    22:00 +24°C° 0 mm 7 m/S 762 mmHg 39%
    23:00 +24°C° 0 mm 7 m/S 762 mmHg 39%

    24 April, Mittwoch

    Zeit Temperatur Niederschläge Wind Luftdruck Luftfeuchtigkeit
    00:00 +24°C° 0 mm 7 m/S 761 mmHg 40%
    01:00 +24°C° 0 mm 7 m/S 761 mmHg 40%
    02:00 +23°C° 0 mm 8 m/S 761 mmHg 40%
    03:00 +23°C° 0 mm 8 m/S 761 mmHg 39%
    04:00 +23°C° 0 mm 8 m/S 761 mmHg 43%
    05:00 +23°C° 0 mm 8 m/S 762 mmHg 46%
    06:00 +23°C° 0 mm 8 m/S 762 mmHg 50%
    07:00 +24°C° 0 mm 8 m/S 762 mmHg 45%
    08:00 +26°C° 0 mm 8 m/S 762 mmHg 41%
    09:00 +27°C° 0 mm 8 m/S 763 mmHg 36%
    10:00 +28°C° 0 mm 9 m/S 763 mmHg 34%
    11:00 +28°C° 0 mm 9 m/S 762 mmHg 32%
    12:00 +28°C° 0 mm 9 m/S 762 mmHg 31%
    13:00 +28°C° 0 mm 10 m/S 762 mmHg 31%
    14:00 +28°C° 0 mm 10 m/S 761 mmHg 31%
    15:00 +28°C° 0 mm 10 m/S 761 mmHg 32%
    16:00 +27°C° 0 mm 10 m/S 761 mmHg 34%
    17:00 +26°C° 0 mm 10 m/S 761 mmHg 37%
    18:00 +26°C° 0 mm 9 m/S 761 mmHg 40%
    19:00 +26°C° 0 mm 9 m/S 761 mmHg 40%
    20:00 +24°C° 0 mm 8 m/S 761 mmHg 40%
    21:00 +24°C° 0 mm 8 m/S 762 mmHg 40%
    22:00 +24°C° 0 mm 8 m/S 761 mmHg 40%
    23:00 +24°C° 0 mm 8 m/S 761 mmHg 41%

    25 April, Donnerstag

    Zeit Temperatur Niederschläge Wind Luftdruck Luftfeuchtigkeit
    00:00 +24°C° 0 mm 8 m/S 761 mmHg 41%
    01:00 +24°C° 0 mm 8 m/S 761 mmHg 41%
    02:00 +24°C° 0 mm 8 m/S 761 mmHg 42%
    03:00 +24°C° 0 mm 8 m/S 760 mmHg 42%
    04:00 +24°C° 0 mm 8 m/S 761 mmHg 43%
    05:00 +24°C° 0 mm 7 m/S 761 mmHg 43%
    06:00 +24°C° 0 mm 7 m/S 761 mmHg 43%
    07:00 +26°C° 0 mm 7 m/S 761 mmHg 39%
    08:00 +27°C° 0 mm 7 m/S 762 mmHg 34%
    09:00 +28°C° 0 mm 7 m/S 762 mmHg 29%
    10:00 +29°C° 0 mm 7 m/S 762 mmHg 28%
    11:00 +29°C° 0 mm 7 m/S 761 mmHg 26%
    12:00 +30°C° 0 mm 7 m/S 761 mmHg 25%
    13:00 +30°C° 0 mm 7 m/S 761 mmHg 26%
    14:00 +29°C° 0 mm 7 m/S 760 mmHg 27%
    15:00 +29°C° 0 mm 8 m/S 760 mmHg 29%
    16:00 +28°C° 0 mm 7 m/S 760 mmHg 31%
    17:00 +27°C° 0 mm 7 m/S 760 mmHg 34%
    18:00 +26°C° 0 mm 7 m/S 760 mmHg 36%
    19:00 +26°C° 0 mm 6 m/S 760 mmHg 38%
    20:00 +26°C° 0 mm 5 m/S 760 mmHg 40%
    21:00 +26°C° 0 mm 4 m/S 760 mmHg 41%
    22:00 +26°C° 0 mm 4 m/S 760 mmHg 41%
    23:00 +25°C° 0 mm 4 m/S 760 mmHg 40%
    Mehr zeigen